| time (UTC) | temp C | wind direction | speed KPH | gust KPH | rain 1hr cm | rain 24hr cm | rain mn cm | humidity % | barometer mb |
| 20260508032202 | 5 | 249 | 6.4 | 11.3 | 0.00 | 0.00 | 0.00 | 100 | 1008.1 |
| 20260508031706 | 6 | 270 | 4.8 | 6.4 | 0.00 | 0.00 | 0.00 | 100 | 1008.1 |
| 20260508031448 | 6 | 257 | 3.2 | 6.4 | 0.00 | 0.00 | 0.00 | 100 | 1008.1 |
| 20260508030704 | 6 | 252 | 1.6 | 4.8 | 0.00 | 0.00 | 0.00 | 100 | 1008.1 |
| 20260508030203 | 6 | 252 | 3.2 | 6.4 | 0.00 | 0.00 | 0.00 | 100 | 1008.1 |
| 20260508025700 | 6 | 252 | 4.8 | 11.3 | 0.00 | 0.00 | 0.00 | 100 | 1008.1 |
| 20260508025154 | 6 | 252 | 6.4 | 11.3 | 0.00 | 0.00 | 0.00 | 100 | 1008.1 |
| 20260508024656 | 6 | 239 | 8.0 | 12.9 | 0.00 | 0.00 | 0.00 | 100 | 1008.1 |
| 20260508024156 | 6 | 232 | 8.0 | 12.9 | 0.00 | 0.00 | 0.00 | 100 | 1008.2 |
| 20260508023654 | 6 | 242 | 6.4 | 11.3 | 0.00 | 0.00 | 0.00 | 100 | 1008.1 |
| 20260508023154 | 6 | 252 | 6.4 | 8.0 | 0.00 | 0.00 | 0.00 | 100 | 1008.1 |
| 20260508022654 | 6 | 256 | 6.4 | 11.3 | 0.00 | 0.00 | 0.00 | 100 | 1008.1 |
| 20260508022215 | 7 | 264 | 4.8 | 11.3 | 0.00 | 0.00 | 0.00 | 100 | 1008.1 |
| 20260508022204 | 6 | 257 | 4.8 | 11.3 | 0.00 | 0.00 | 0.00 | 100 | 1008.1 |
| 20260508021436 | 7 | 264 | 3.2 | 11.3 | 0.00 | 0.00 | 0.00 | 100 | 1008.0 |
| 20260508020921 | 7 | 273 | 3.2 | 4.8 | 0.00 | 0.00 | 0.00 | 100 | 1008.0 |
| 20260508020157 | 7 | 272 | 3.2 | 4.8 | 0.00 | 0.00 | 0.00 | 100 | 1008.0 |
| 20260508015656 | 8 | 273 | 3.2 | 4.8 | 0.00 | 0.00 | 0.00 | 100 | 1007.9 |
| 20260508015432 | 8 | 273 | 1.6 | 4.8 | 0.00 | 0.00 | 0.00 | 100 | 1007.9 |
| 20260508014654 | 8 | 273 | 0.0 | 3.2 | 0.00 | 0.00 | 0.00 | 100 | 1007.7 |
| 20260508014154 | 8 | 273 | 1.6 | 6.4 | 0.00 | 0.00 | 0.00 | 100 | 1007.8 |
| 20260508013656 | 8 | 273 | 1.6 | 6.4 | 0.00 | 0.00 | 0.00 | 100 | 1007.8 |
| 20260508013154 | 9 | 272 | 0.0 | 4.8 | 0.00 | 0.00 | 0.00 | 100 | 1007.7 |
| 20260508012706 | 9 | 273 | 3.2 | 9.7 | 0.00 | 0.00 | 0.00 | 100 | 1007.6 |
| 20260508012655 | 9 | 273 | 1.6 | 9.7 | 0.00 | 0.00 | 0.00 | 100 | 1007.7 |
| 20260508011648 | 9 | 259 | 3.2 | 9.7 | 0.00 | 0.00 | 0.00 | 100 | 1007.7 |
| 20260508011149 | 10 | 258 | 4.8 | 11.3 | 0.00 | 0.00 | 0.00 | 100 | 1007.7 |
| 20260508010649 | 10 | 257 | 6.4 | 11.3 | 0.00 | 0.00 | 0.00 | 100 | 1007.7 |
| 20260508010423 | 10 | 223 | 8.0 | 12.9 | 0.00 | 0.00 | 0.00 | 100 | 1007.7 |
| 20260508005651 | 10 | 247 | 6.4 | 12.9 | 0.00 | 0.00 | 0.00 | 100 | 1007.7 |
| 20260508005149 | 10 | 246 | 6.4 | 12.9 | 0.00 | 0.00 | 0.00 | 100 | 1007.7 |
| 20260508004649 | 10 | 241 | 6.4 | 14.5 | 0.00 | 0.00 | 0.00 | 100 | 1007.7 |
| 20260508004424 | 10 | 245 | 4.8 | 14.5 | 0.00 | 0.00 | 0.00 | 100 | 1007.7 |
| 20260508003917 | 10 | 229 | 4.8 | 11.3 | 0.00 | 0.00 | 0.00 | 100 | 1007.7 |
| 20260508003144 | 10 | 240 | 3.2 | 8.0 | 0.00 | 0.00 | 0.00 | 100 | 1007.7 |
| 20260508002644 | 10 | 240 | 6.4 | 12.9 | 0.00 | 0.00 | 0.00 | 100 | 1007.8 |
| 20260508002149 | 10 | 240 | 6.4 | 12.9 | 0.00 | 0.00 | 0.00 | 100 | 1007.7 |
| 20260508001643 | 10 | 207 | 6.4 | 9.7 | 0.00 | 0.00 | 0.00 | 100 | 1007.7 |
| 20260508001132 | 10 | 176 | 6.4 | 11.3 | 0.00 | 0.00 | 0.00 | 100 | 1007.7 |
| 20260508000633 | 10 | 192 | 6.4 | 12.9 | 0.00 | 0.00 | 0.00 | 100 | 1007.7 |
| 20260508000137 | 10 | 191 | 8.0 | 14.5 | 0.00 | 0.00 | 0.00 | 100 | 1007.7 |
| 20260507235638 | 10 | 237 | 9.7 | 17.7 | 0.00 | 0.00 | 0.00 | 100 | 1007.6 |
| 20260507235413 | 10 | 228 | 9.7 | 17.7 | 0.00 | 0.00 | 0.00 | 100 | 1007.6 |
| 20260507234632 | 10 | 226 | 9.7 | 17.7 | 0.00 | 0.00 | 0.00 | 100 | 1007.6 |
| 20260507234137 | 10 | 227 | 8.0 | 17.7 | 0.00 | 0.00 | 0.00 | 100 | 1007.6 |
| 20260507233630 | 10 | 226 | 8.0 | 17.7 | 0.00 | 0.00 | 0.00 | 100 | 1007.7 |
| 20260507233403 | 10 | 237 | 11.3 | 24.1 | 0.00 | 0.00 | 0.00 | 100 | 1007.5 |
| 20260507232631 | 10 | 241 | 11.3 | 24.1 | 0.00 | 0.00 | 0.00 | 100 | 1007.4 |
| 20260507232130 | 10 | 187 | 11.3 | 20.9 | 0.00 | 0.00 | 0.00 | 100 | 1007.4 |
| 20260507231631 | 10 | 216 | 12.9 | 20.9 | 0.00 | 0.00 | 0.00 | 100 | 1007.4 |
| 20260507231409 | 10 | 207 | 12.9 | 20.9 | 0.00 | 0.00 | 0.00 | 100 | 1007.4 |
| 20260507230632 | 10 | 250 | 12.9 | 22.5 | 0.00 | 0.00 | 0.00 | 100 | 1007.4 |
| 20260507230130 | 10 | 226 | 12.9 | 22.5 | 0.00 | 0.00 | 0.00 | 100 | 1007.3 |
| 20260507225629 | 10 | 230 | 12.9 | 22.5 | 0.00 | 0.00 | 0.00 | 100 | 1007.3 |
| 20260507225128 | 10 | 217 | 12.9 | 22.5 | 0.00 | 0.00 | 0.00 | 100 | 1007.3 |
| 20260507224629 | 10 | 230 | 12.9 | 29.0 | 0.00 | 0.00 | 0.00 | 100 | 1007.3 |
| 20260507224129 | 10 | 211 | 14.5 | 29.0 | 0.00 | 0.00 | 0.00 | 100 | 1007.2 |
| 20260507223858 | 10 | 215 | 14.5 | 27.4 | 0.00 | 0.00 | 0.00 | 100 | 1007.3 |
| 20260507223127 | 10 | 242 | 14.5 | 24.1 | 0.00 | 0.00 | 0.00 | 100 | 1007.3 |
| 20260507222627 | 10 | 222 | 12.9 | 24.1 | 0.00 | 0.00 | 0.00 | 100 | 1007.2 |
| 20260507222127 | 10 | 188 | 12.9 | 19.3 | 0.00 | 0.00 | 0.00 | 100 | 1007.2 |
| 20260507221625 | 10 | 196 | 12.9 | 24.1 | 0.00 | 0.00 | 0.00 | 100 | 1007.2 |
| 20260507221126 | 10 | 226 | 11.3 | 24.1 | 0.00 | 0.00 | 0.00 | 100 | 1007.2 |
| 20260507220625 | 10 | 202 | 9.7 | 16.1 | 0.00 | 0.00 | 0.00 | 100 | 1007.3 |
| 20260507220126 | 10 | 219 | 12.9 | 20.9 | 0.00 | 0.00 | 0.00 | 100 | 1007.3 |
| 20260507215625 | 10 | 215 | 12.9 | 22.5 | 0.00 | 0.00 | 0.00 | 100 | 1007.3 |
| 20260507215403 | 10 | 216 | 11.3 | 22.5 | 0.00 | 0.00 | 0.00 | 100 | 1007.4 |
| 20260507214625 | 10 | 221 | 9.7 | 17.7 | 0.00 | 0.00 | 0.00 | 100 | 1007.4 |
| 20260507214125 | 10 | 203 | 8.0 | 16.1 | 0.00 | 0.00 | 0.00 | 100 | 1007.4 |
| 20260507213625 | 10 | 199 | 8.0 | 17.7 | 0.00 | 0.00 | 0.00 | 100 | 1007.4 |
| 20260507213126 | 10 | 209 | 9.7 | 22.5 | 0.00 | 0.00 | 0.00 | 100 | 1007.4 |
| 20260507212628 | 11 | 195 | 11.3 | 22.5 | 0.00 | 0.00 | 0.00 | 100 | 1007.3 |
| 20260507212127 | 11 | 219 | 11.3 | 24.1 | 0.00 | 0.00 | 0.00 | 100 | 1007.3 |
| 20260507211850 | 11 | 208 | 9.7 | 24.1 | 0.00 | 0.00 | 0.00 | 100 | 1007.4 |
| 20260507211126 | 11 | 202 | 9.7 | 19.3 | 0.00 | 0.00 | 0.00 | 100 | 1007.3 |
| 20260507210619 | 11 | 193 | 9.7 | 19.3 | 0.00 | 0.00 | 0.00 | 100 | 1007.2 |
| 20260507210120 | 11 | 227 | 9.7 | 17.7 | 0.00 | 0.00 | 0.00 | 100 | 1007.0 |
| 20260507205849 | 11 | 214 | 11.3 | 24.1 | 0.00 | 0.00 | 0.00 | 100 | 1007.1 |
| 20260507205119 | 11 | 248 | 11.3 | 24.1 | 0.00 | 0.00 | 0.00 | 100 | 1007.1 |
| 20260507204619 | 11 | 229 | 12.9 | 24.1 | 0.00 | 0.00 | 0.00 | 100 | 1007.0 |
| 20260507204126 | 11 | 194 | 12.9 | 29.0 | 0.00 | 0.00 | 0.00 | 100 | 1007.0 |
| 20260507203621 | 11 | 207 | 14.5 | 29.0 | 0.00 | 0.00 | 0.00 | 100 | 1007.0 |
| 20260507203152 | 11 | 213 | 11.3 | 27.4 | 0.00 | 0.00 | 0.00 | 100 | 1006.9 |
| 20260507203130 | 11 | 227 | 12.9 | 27.4 | 0.00 | 0.00 | 0.00 | 100 | 1007.0 |
| 20260507202853 | 11 | 192 | 9.7 | 20.9 | 0.00 | 0.00 | 0.00 | 100 | 1006.8 |
| 20260507201608 | 11 | 194 | 11.3 | 20.9 | 0.00 | 0.00 | 0.00 | 100 | 1006.6 |
| 20260507201105 | 11 | 217 | 9.7 | 19.3 | 0.00 | 0.00 | 0.00 | 100 | 1006.6 |
| 20260507200607 | 11 | 218 | 9.7 | 20.9 | 0.00 | 0.00 | 0.00 | 100 | 1006.5 |
| 20260507200117 | 11 | 203 | 11.3 | 29.0 | 0.00 | 0.00 | 0.00 | 100 | 1006.5 |
| 20260507195601 | 11 | 167 | 11.3 | 29.0 | 0.00 | 0.00 | 0.00 | 100 | 1006.5 |
| 20260507195059 | 11 | 200 | 9.7 | 22.5 | 0.00 | 0.00 | 0.00 | 100 | 1006.5 |
| 20260507194558 | 12 | 178 | 11.3 | 20.9 | 0.00 | 0.00 | 0.00 | 100 | 1006.5 |
| 20260507194327 | 12 | 186 | 14.5 | 30.6 | 0.00 | 0.00 | 0.00 | 100 | 1006.5 |
| 20260507193557 | 12 | 216 | 14.5 | 30.6 | 0.00 | 0.00 | 0.00 | 100 | 1006.5 |
| 20260507193057 | 12 | 203 | 14.5 | 22.5 | 0.00 | 0.00 | 0.00 | 100 | 1006.4 |
| 20260507192557 | 12 | 210 | 16.1 | 38.6 | 0.00 | 0.00 | 0.00 | 100 | 1006.4 |
| 20260507192056 | 12 | 228 | 17.7 | 38.6 | 0.00 | 0.00 | 0.00 | 100 | 1006.3 |
| 20260507191559 | 12 | 253 | 17.7 | 24.1 | 0.00 | 0.00 | 0.00 | 100 | 1006.3 |
| 20260507191327 | 13 | 233 | 16.1 | 29.0 | 0.00 | 0.00 | 0.00 | 100 | 1006.3 |
| 20260507190554 | 13 | 219 | 14.5 | 29.0 | 0.00 | 0.00 | 0.00 | 100 | 1006.4 |
| 20260507190054 | 12 | 232 | 12.9 | 24.1 | 0.00 | 0.00 | 0.00 | 100 | 1006.3 |
| 20260507185550 | 12 | 217 | 12.9 | 27.4 | 0.00 | 0.00 | 0.00 | 100 | 1006.4 |
| 20260507185042 | 13 | 213 | 14.5 | 27.4 | 0.00 | 0.00 | 0.00 | 100 | 1006.3 |
| 20260507184537 | 12 | 203 | 14.5 | 27.4 | 0.00 | 0.00 | 0.00 | 100 | 1006.2 |
| 20260507184032 | 12 | 245 | 12.9 | 27.4 | 0.00 | 0.00 | 0.00 | 100 | 1006.2 |
| 20260507183533 | 13 | 221 | 14.5 | 27.4 | 0.00 | 0.00 | 0.00 | 100 | 1006.2 |
| 20260507183035 | 13 | 211 | 17.7 | 29.0 | 0.00 | 0.00 | 0.00 | 100 | 1006.1 |
| 20260507182534 | 13 | 236 | 14.5 | 29.0 | 0.00 | 0.00 | 0.00 | 100 | 1006.2 |
| 20260507182034 | 13 | 222 | 11.3 | 29.0 | 0.00 | 0.00 | 0.00 | 100 | 1006.3 |
| 20260507181534 | 13 | 223 | 14.5 | 27.4 | 0.00 | 0.00 | 0.00 | 100 | 1006.2 |
| 20260507181033 | 13 | 209 | 16.1 | 27.4 | 0.00 | 0.00 | 0.00 | 100 | 1006.3 |
| 20260507180534 | 13 | 229 | 16.1 | 29.0 | 0.00 | 0.00 | 0.00 | 100 | 1006.2 |
| 20260507180032 | 13 | 230 | 19.3 | 35.4 | 0.00 | 0.00 | 0.00 | 100 | 1006.2 |
| 20260507175531 | 13 | 220 | 20.9 | 35.4 | 0.00 | 0.00 | 0.00 | 100 | 1006.2 |
| 20260507175032 | 13 | 252 | 19.3 | 35.4 | 0.00 | 0.00 | 0.00 | 100 | 1006.2 |
| 20260507174534 | 13 | 226 | 17.7 | 40.2 | 0.00 | 0.00 | 0.00 | 100 | 1006.2 |
| 20260507174030 | 14 | 232 | 20.9 | 40.2 | 0.00 | 0.00 | 0.00 | 100 | 1006.2 |
| 20260507173533 | 13 | 221 | 24.1 | 40.2 | 0.00 | 0.00 | 0.00 | 100 | 1006.3 |
| 20260507173031 | 13 | 239 | 24.1 | 40.2 | 0.00 | 0.00 | 0.00 | 100 | 1006.3 |
| 20260507172526 | 13 | 243 | 22.5 | 38.6 | 0.00 | 0.00 | 0.00 | 100 | 1006.2 |
| 20260507172022 | 14 | 216 | 19.3 | 38.6 | 0.00 | 0.00 | 0.00 | 100 | 1006.2 |
| 20260507171523 | 14 | 225 | 19.3 | 35.4 | 0.00 | 0.00 | 0.00 | 100 | 1006.2 |
| 20260507171251 | 14 | 256 | 17.7 | 30.6 | 0.00 | 0.00 | 0.00 | 100 | 1006.2 |
| 20260507170521 | 13 | 239 | 19.3 | 33.8 | 0.00 | 0.00 | 0.00 | 100 | 1006.3 |
| 20260507170022 | 13 | 202 | 24.1 | 37.0 | 0.00 | 0.00 | 0.00 | 100 | 1006.4 |
| 20260507165522 | 14 | 190 | 25.7 | 38.6 | 0.00 | 0.00 | 0.00 | 100 | 1006.4 |
| 20260507165021 | 14 | 225 | 25.7 | 51.5 | 0.00 | 0.00 | 0.00 | 100 | 1006.3 |
| 20260507164521 | 14 | 217 | 27.4 | 51.5 | 0.00 | 0.00 | 0.00 | 100 | 1006.3 |
| 20260507164022 | 14 | 213 | 25.7 | 43.5 | 0.00 | 0.00 | 0.00 | 100 | 1006.4 |
| 20260507163521 | 14 | 231 | 25.7 | 43.5 | 0.00 | 0.00 | 0.00 | 100 | 1006.4 |
| 20260507163020 | 14 | 211 | 24.1 | 43.5 | 0.00 | 0.00 | 0.00 | 100 | 1006.4 |
| 20260507162520 | 14 | 218 | 22.5 | 37.0 | 0.00 | 0.00 | 0.00 | 100 | 1006.3 |
| 20260507162034 | 14 | 220 | 22.5 | 38.6 | 0.00 | 0.00 | 0.00 | 100 | 1006.4 |
| 20260507162022 | 14 | 222 | 22.5 | 37.0 | 0.00 | 0.00 | 0.00 | 100 | 1006.4 |
| 20260507161017 | 14 | 238 | 24.1 | 41.8 | 0.00 | 0.00 | 0.00 | 100 | 1006.4 |
| 20260507160744 | 14 | 225 | 25.7 | 41.8 | 0.00 | 0.00 | 0.00 | 100 | 1006.4 |
| 20260507160019 | 14 | 248 | 25.7 | 41.8 | 0.00 | 0.00 | 0.00 | 100 | 1006.4 |
| 20260507155514 | 14 | 249 | 29.0 | 41.8 | 0.00 | 0.00 | 0.00 | 100 | 1006.4 |
| 20260507155245 | 14 | 233 | 30.6 | 45.1 | 0.00 | 0.00 | 0.00 | 100 | 1006.4 |
| 20260507154516 | 14 | 237 | 29.0 | 45.1 | 0.00 | 0.00 | 0.00 | 100 | 1006.4 |
| 20260507154016 | 14 | 221 | 29.0 | 46.7 | 0.00 | 0.00 | 0.00 | 100 | 1006.2 |
| 20260507153514 | 14 | 202 | 27.4 | 46.7 | 0.00 | 0.00 | 0.00 | 100 | 1006.2 |
| 20260507153014 | 15 | 211 | 25.7 | 41.8 | 0.00 | 0.00 | 0.00 | 100 | 1006.3 |
| 20260507152515 | 15 | 193 | 25.7 | 38.6 | 0.00 | 0.00 | 0.00 | 100 | 1006.2 |
| 20260507152021 | 15 | 213 | 25.7 | 45.1 | 0.00 | 0.00 | 0.00 | 100 | 1006.3 |
| 20260507152011 | 15 | 205 | 25.7 | 45.1 | 0.00 | 0.00 | 0.00 | 100 | 1006.3 |
| 20260507151006 | 15 | 173 | 24.1 | 41.8 | 0.00 | 0.00 | 0.00 | 100 | 1006.3 |
| 20260507150508 | 15 | 265 | 20.9 | 41.8 | 0.00 | 0.00 | 0.00 | 100 | 1006.4 |
| 20260507150007 | 15 | 219 | 17.7 | 40.2 | 0.00 | 0.00 | 0.00 | 100 | 1006.4 |
| 20260507145507 | 15 | 178 | 17.7 | 40.2 | 0.00 | 0.00 | 0.00 | 100 | 1006.3 |
| 20260507145254 | 15 | 256 | 24.1 | 45.1 | 0.00 | 0.00 | 0.00 | 100 | 1006.4 |
| 20260507145247 | 15 | 211 | 20.9 | 38.6 | 0.00 | 0.00 | 0.00 | 100 | 1006.3 |
| 20260507144233 | 15 | 226 | 24.1 | 45.1 | 0.00 | 0.00 | 0.00 | 100 | 1006.4 |
| 20260507143505 | 15 | 234 | 20.9 | 37.0 | 0.00 | 0.00 | 0.00 | 100 | 1006.5 |
| 20260507143005 | 15 | 214 | 20.9 | 38.6 | 0.00 | 0.00 | 0.00 | 100 | 1006.6 |
| 20260507142505 | 15 | 190 | 19.3 | 38.6 | 0.00 | 0.00 | 0.00 | 100 | 1006.6 |
| 20260507142007 | 15 | 219 | 16.1 | 32.2 | 0.00 | 0.00 | 0.00 | 100 | 1006.6 |
| 20260507141741 | 15 | 187 | 17.7 | 37.0 | 0.00 | 0.00 | 0.00 | 100 | 1006.6 |
| 20260507141007 | 15 | 195 | 20.9 | 40.2 | 0.00 | 0.00 | 0.00 | 100 | 1006.8 |
| 20260507140504 | 15 | 203 | 19.3 | 40.2 | 0.00 | 0.00 | 0.00 | 100 | 1006.9 |
| 20260507140234 | 15 | 217 | 19.3 | 40.2 | 0.00 | 0.00 | 0.00 | 100 | 1007.0 |
| 20260507135734 | 15 | 175 | 19.3 | 40.2 | 0.00 | 0.00 | 0.00 | 100 | 1007.1 |
| 20260507135003 | 15 | 225 | 17.7 | 35.4 | 0.00 | 0.00 | 0.00 | 100 | 1007.2 |
| 20260507134503 | 15 | 233 | 20.9 | 35.4 | 0.00 | 0.00 | 0.00 | 100 | 1007.3 |
| 20260507134007 | 15 | 160 | 20.9 | 40.2 | 0.00 | 0.00 | 0.00 | 100 | 1007.2 |
| 20260507133503 | 15 | 186 | 20.9 | 40.2 | 0.00 | 0.00 | 0.00 | 100 | 1007.3 |
| 20260507133235 | 15 | 191 | 19.3 | 35.4 | 0.00 | 0.00 | 0.00 | 100 | 1007.4 |
| 20260507132502 | 15 | 183 | 19.3 | 35.4 | 0.00 | 0.00 | 0.00 | 100 | 1007.3 |
| 20260507132003 | 15 | 200 | 19.3 | 38.6 | 0.00 | 0.00 | 0.00 | 100 | 1007.5 |
| 20260507131503 | 15 | 169 | 20.9 | 38.6 | 0.00 | 0.00 | 0.00 | 100 | 1007.4 |
| 20260507131007 | 15 | 173 | 17.7 | 37.0 | 0.00 | 0.00 | 0.00 | 100 | 1007.5 |
| 20260507130519 | 15 | 160 | 17.7 | 35.4 | 0.00 | 0.00 | 0.00 | 100 | 1007.3 |
| 20260507130004 | 15 | 182 | 19.3 | 35.4 | 0.00 | 0.00 | 0.00 | 100 | 1007.5 |
| 20260507125503 | 15 | 198 | 16.1 | 33.8 | 0.00 | 0.00 | 0.00 | 100 | 1007.5 |
| 20260507125004 | 15 | 178 | 14.5 | 24.1 | 0.00 | 0.00 | 0.00 | 100 | 1007.5 |
| 20260507124738 | 13 | 163 | 14.5 | 29.0 | 0.00 | 0.00 | 0.00 | 100 | 1007.6 |
| 20260507124005 | 13 | 177 | 12.9 | 29.0 | 0.00 | 0.00 | 0.00 | 100 | 1007.7 |
| 20260507123503 | 12 | 184 | 14.5 | 33.8 | 0.00 | 0.00 | 0.00 | 100 | 1007.8 |
| 20260507123002 | 12 | 171 | 16.1 | 33.8 | 0.00 | 0.00 | 0.00 | 100 | 1007.9 |
| 20260507122504 | 13 | 180 | 12.9 | 25.7 | 0.00 | 0.00 | 0.00 | 100 | 1007.8 |
| 20260507122232 | 13 | 168 | 12.9 | 24.1 | 0.00 | 0.00 | 0.00 | 100 | 1007.6 |
| 20260507121501 | 13 | 188 | 14.5 | 29.0 | 0.00 | 0.00 | 0.00 | 100 | 1007.7 |
| 20260507121003 | 13 | 174 | 12.9 | 29.0 | 0.00 | 0.00 | 0.00 | 100 | 1007.7 |
| 20260507120503 | 13 | 215 | 12.9 | 24.1 | 0.00 | 0.00 | 0.00 | 100 | 1007.7 |
| 20260507120002 | 13 | 215 | 14.5 | 32.2 | 0.00 | 0.00 | 0.00 | 100 | 1007.8 |
| 20260507115734 | 14 | 187 | 14.5 | 32.2 | 0.00 | 0.00 | 0.00 | 100 | 1007.8 |
| 20260507115002 | 13 | 129 | 14.5 | 27.4 | 0.00 | 0.00 | 0.00 | 100 | 1007.8 |
| 20260507114501 | 13 | 192 | 14.5 | 25.7 | 0.00 | 0.00 | 0.00 | 100 | 1007.9 |
| 20260507114229 | 13 | 200 | 16.1 | 32.2 | 0.00 | 0.00 | 0.00 | 100 | 1007.9 |
| 20260507113503 | 13 | 188 | 17.7 | 35.4 | 0.00 | 0.00 | 0.00 | 100 | 1007.9 |
| 20260507113001 | 13 | 151 | 17.7 | 35.4 | 0.00 | 0.00 | 0.00 | 100 | 1007.9 |
| 20260507112501 | 13 | 194 | 19.3 | 38.6 | 0.00 | 0.00 | 0.00 | 100 | 1007.9 |
| 20260507112001 | 13 | 211 | 17.7 | 38.6 | 0.00 | 0.00 | 0.00 | 100 | 1007.9 |
| 20260507111454 | 12 | 183 | 16.1 | 33.8 | 0.00 | 0.00 | 0.00 | 100 | 1007.9 |
| 20260507111223 | 12 | 222 | 16.1 | 32.2 | 0.00 | 0.00 | 0.00 | 100 | 1007.9 |
| 20260507110444 | 12 | 198 | 16.1 | 32.2 | 0.00 | 0.00 | 0.00 | 100 | 1007.9 |
| 20260507105941 | 12 | 178 | 14.5 | 27.4 | 0.00 | 0.00 | 0.00 | 100 | 1007.9 |
| 20260507105444 | 12 | 173 | 14.5 | 27.4 | 0.00 | 0.00 | 0.00 | 100 | 1008.0 |
| 20260507104944 | 12 | 173 | 14.5 | 33.8 | 0.00 | 0.00 | 0.00 | 100 | 1008.0 |
| 20260507104716 | 12 | 182 | 14.5 | 33.8 | 0.00 | 0.00 | 0.00 | 100 | 1008.1 |
| 20260507103945 | 12 | 160 | 11.3 | 27.4 | 0.00 | 0.00 | 0.00 | 100 | 1008.1 |
| 20260507103445 | 12 | 182 | 12.9 | 24.1 | 0.00 | 0.00 | 0.00 | 100 | 1008.1 |
| 20260507102945 | 12 | 166 | 12.9 | 25.7 | 0.00 | 0.00 | 0.00 | 100 | 1008.1 |
| 20260507102721 | 12 | 193 | 16.1 | 32.2 | 0.00 | 0.00 | 0.00 | 100 | 1008.1 |
| 20260507101944 | 12 | 199 | 16.1 | 32.2 | 0.00 | 0.00 | 0.00 | 100 | 1008.2 |
| 20260507101444 | 12 | 187 | 16.1 | 30.6 | 0.00 | 0.00 | 0.00 | 100 | 1008.2 |
| 20260507100938 | 12 | 184 | 14.5 | 29.0 | 0.00 | 0.00 | 0.00 | 100 | 1008.2 |
| 20260507100438 | 12 | 190 | 12.9 | 29.0 | 0.00 | 0.00 | 0.00 | 100 | 1008.2 |
| 20260507095940 | 12 | 192 | 14.5 | 29.0 | 0.00 | 0.00 | 0.00 | 100 | 1008.3 |
| 20260507095431 | 12 | 175 | 14.5 | 25.7 | 0.00 | 0.00 | 0.00 | 100 | 1008.2 |
| 20260507095203 | 11 | 186 | 12.9 | 25.7 | 0.00 | 0.00 | 0.00 | 100 | 1008.2 |
| 20260507094426 | 11 | 217 | 14.5 | 24.1 | 0.00 | 0.00 | 0.00 | 100 | 1008.2 |
| 20260507093924 | 11 | 215 | 14.5 | 24.1 | 0.00 | 0.00 | 0.00 | 100 | 1008.3 |
| 20260507093425 | 11 | 194 | 14.5 | 27.4 | 0.00 | 0.00 | 0.00 | 100 | 1008.4 |
| 20260507093153 | 11 | 211 | 14.5 | 27.4 | 0.00 | 0.00 | 0.00 | 100 | 1008.4 |
| 20260507092425 | 11 | 179 | 12.9 | 27.4 | 0.00 | 0.00 | 0.00 | 100 | 1008.4 |
| 20260507091925 | 11 | 186 | 9.7 | 22.5 | 0.00 | 0.00 | 0.00 | 100 | 1008.3 |
| 20260507091425 | 11 | 225 | 9.7 | 20.9 | 0.00 | 0.00 | 0.00 | 100 | 1008.3 |
| 20260507090927 | 11 | 192 | 9.7 | 20.9 | 0.00 | 0.00 | 0.00 | 100 | 1008.3 |
| 20260507090656 | 11 | 175 | 9.7 | 20.9 | 0.00 | 0.00 | 0.00 | 100 | 1008.3 |
| 20260507085926 | 11 | 171 | 8.0 | 17.7 | 0.00 | 0.00 | 0.00 | 100 | 1008.4 |
| 20260507085426 | 10 | 184 | 9.7 | 17.7 | 0.00 | 0.00 | 0.00 | 100 | 1008.4 |
| 20260507084930 | 10 | 195 | 9.7 | 17.7 | 0.00 | 0.00 | 0.00 | 100 | 1008.4 |
| 20260507084427 | 10 | 194 | 11.3 | 24.1 | 0.00 | 0.00 | 0.00 | 100 | 1008.6 |
| 20260507084148 | 10 | 173 | 8.0 | 24.1 | 0.00 | 0.00 | 0.00 | 100 | 1008.7 |
| 20260507083657 | 10 | 234 | 4.8 | 16.1 | 0.00 | 0.00 | 0.00 | 100 | 1008.7 |
| 20260507082926 | 10 | 152 | 4.8 | 11.3 | 0.00 | 0.00 | 0.00 | 100 | 1008.6 |
| 20260507082426 | 10 | 126 | 4.8 | 9.7 | 0.00 | 0.00 | 0.00 | 100 | 1008.6 |
| 20260507081923 | 10 | 190 | 3.2 | 11.3 | 0.00 | 0.00 | 0.00 | 100 | 1008.7 |
| 20260507081421 | 10 | 136 | 4.8 | 11.3 | 0.00 | 0.00 | 0.00 | 100 | 1008.6 |
| 20260507080919 | 10 | 136 | 6.4 | 16.1 | 0.00 | 0.00 | 0.00 | 100 | 1008.7 |
| 20260507080419 | 10 | 200 | 4.8 | 16.1 | 0.00 | 0.00 | 0.00 | 100 | 1008.7 |
| 20260507075919 | 10 | 171 | 3.2 | 9.7 | 0.00 | 0.00 | 0.00 | 100 | 1008.7 |
| 20260507075416 | 10 | 168 | 4.8 | 14.5 | 0.00 | 0.00 | 0.00 | 100 | 1008.8 |
| 20260507074911 | 10 | 238 | 4.8 | 14.5 | 0.00 | 0.00 | 0.00 | 100 | 1008.7 |
| 20260507074413 | 10 | 132 | 4.8 | 11.3 | 0.00 | 0.00 | 0.00 | 100 | 1008.7 |
| 20260507074139 | 10 | 129 | 6.4 | 16.1 | 0.00 | 0.00 | 0.00 | 100 | 1008.7 |
| 20260507073410 | 10 | 155 | 8.0 | 16.1 | 0.00 | 0.00 | 0.00 | 100 | 1008.7 |
| 20260507072908 | 9 | 125 | 8.0 | 14.5 | 0.00 | 0.00 | 0.00 | 100 | 1008.7 |
| 20260507072407 | 9 | 148 | 8.0 | 14.5 | 0.00 | 0.00 | 0.00 | 100 | 1008.7 |
| 20260507071906 | 9 | 160 | 9.7 | 16.1 | 0.00 | 0.00 | 0.00 | 100 | 1008.7 |
| 20260507071425 | 9 | 155 | 4.8 | 14.5 | 0.00 | 0.00 | 0.00 | 100 | 1008.8 |
| 20260507071411 | 9 | 173 | 8.0 | 16.1 | 0.00 | 0.00 | 0.00 | 100 | 1008.7 |
| 20260507070407 | 9 | 157 | 3.2 | 9.7 | 0.00 | 0.00 | 0.00 | 100 | 1008.9 |
| 20260507065854 | 9 | 157 | 1.6 | 9.7 | 0.00 | 0.00 | 0.00 | 100 | 1008.9 |
| 20260507065351 | 9 | 214 | 1.6 | 8.0 | 0.00 | 0.00 | 0.00 | 100 | 1008.9 |
| 20260507064844 | 9 | 214 | 3.2 | 9.7 | 0.00 | 0.00 | 0.00 | 100 | 1008.9 |
| 20260507064338 | 9 | 158 | 4.8 | 11.3 | 0.00 | 0.00 | 0.00 | 100 | 1009.0 |
| 20260507063839 | 8 | 136 | 4.8 | 11.3 | 0.00 | 0.00 | 0.00 | 100 | 1008.9 |
| 20260507063339 | 8 | 146 | 3.2 | 8.0 | 0.00 | 0.00 | 0.00 | 100 | 1009.1 |
| 20260507062840 | 8 | 152 | 3.2 | 8.0 | 0.00 | 0.00 | 0.00 | 100 | 1009.0 |
| 20260507062342 | 8 | 143 | 3.2 | 9.7 | 0.00 | 0.00 | 0.00 | 100 | 1009.1 |
| 20260507061842 | 8 | 143 | 4.8 | 9.7 | 0.00 | 0.00 | 0.00 | 100 | 1009.1 |
| 20260507061340 | 8 | 129 | 4.8 | 11.3 | 0.00 | 0.00 | 0.00 | 100 | 1009.2 |
| 20260507060838 | 8 | 145 | 6.4 | 11.3 | 0.00 | 0.00 | 0.00 | 100 | 1009.3 |
| 20260507060336 | 8 | 145 | 6.4 | 11.3 | 0.00 | 0.00 | 0.00 | 100 | 1009.1 |
| 20260507055835 | 8 | 157 | 6.4 | 12.9 | 0.00 | 0.00 | 0.00 | 100 | 1009.2 |
| 20260507055334 | 8 | 165 | 6.4 | 12.9 | 0.00 | 0.00 | 0.00 | 100 | 1009.1 |
| 20260507054834 | 8 | 182 | 6.4 | 12.9 | 0.00 | 0.00 | 0.00 | 100 | 1009.2 |
| 20260507054333 | 8 | 161 | 8.0 | 16.1 | 0.00 | 0.00 | 0.00 | 100 | 1009.2 |
| 20260507054103 | 8 | 178 | 9.7 | 16.1 | 0.00 | 0.00 | 0.00 | 100 | 1009.1 |
| 20260507053334 | 8 | 159 | 9.7 | 14.5 | 0.00 | 0.00 | 0.00 | 100 | 1009.2 |
| 20260507052832 | 8 | 196 | 8.0 | 16.1 | 0.00 | 0.00 | 0.00 | 100 | 1009.3 |
| 20260507052328 | 8 | 177 | 6.4 | 16.1 | 0.00 | 0.00 | 0.00 | 100 | 1009.3 |
| 20260507051820 | 8 | 183 | 6.4 | 11.3 | 0.00 | 0.00 | 0.00 | 100 | 1009.2 |
| 20260507051546 | 8 | 176 | 6.4 | 14.5 | 0.00 | 0.00 | 0.00 | 100 | 1009.2 |
| 20260507050817 | 8 | 167 | 6.4 | 14.5 | 0.00 | 0.00 | 0.00 | 100 | 1009.1 |
| 20260507050319 | 8 | 192 | 6.4 | 11.3 | 0.00 | 0.00 | 0.00 | 100 | 1009.2 |
| 20260507045817 | 7 | 189 | 6.4 | 11.3 | 0.00 | 0.00 | 0.00 | 100 | 1009.4 |
| 20260507045316 | 7 | 177 | 6.4 | 11.3 | 0.00 | 0.00 | 0.00 | 100 | 1009.5 |
| 20260507044818 | 7 | 175 | 4.8 | 9.7 | 0.00 | 0.00 | 0.00 | 100 | 1009.4 |
| 20260507044316 | 7 | 188 | 4.8 | 8.0 | 0.00 | 0.00 | 0.00 | 100 | 1009.5 |
| 20260507043812 | 7 | 206 | 4.8 | 8.0 | 0.00 | 0.00 | 0.00 | 100 | 1009.6 |
| 20260507043314 | 7 | 177 | 1.6 | 8.0 | 0.00 | 0.00 | 0.00 | 100 | 1009.6 |
| 20260507042814 | 7 | 177 | 0.0 | 4.8 | 0.00 | 0.00 | 0.00 | 100 | 1009.5 |
| 20260507042312 | 7 | 177 | 0.0 | 3.2 | 0.00 | 0.00 | 0.00 | 100 | 1009.5 |
| 20260507041810 | 7 | 176 | 1.6 | 4.8 | 0.00 | 0.00 | 0.00 | 100 | 1009.6 |
| 20260507041308 | 7 | 177 | 1.6 | 8.0 | 0.00 | 0.00 | 0.00 | 100 | 1009.5 |
| 20260507040808 | 7 | 177 | 3.2 | 8.0 | 0.00 | 0.00 | 0.00 | 100 | 1009.5 |
| 20260507040308 | 7 | 176 | 4.8 | 9.7 | 0.00 | 0.00 | 0.00 | 100 | 1009.6 |
| 20260507035808 | 7 | 176 | 4.8 | 11.3 | 0.00 | 0.00 | 0.00 | 100 | 1009.4 |
| 20260507035309 | 7 | 200 | 6.4 | 11.3 | 0.00 | 0.00 | 0.00 | 100 | 1009.5 |
| 20260507035037 | 7 | 203 | 6.4 | 11.3 | 0.00 | 0.00 | 0.00 | 100 | 1009.5 |
| 20260507034310 | 7 | 213 | 6.4 | 12.9 | 0.00 | 0.00 | 0.00 | 100 | 1009.6 |
| 20260507034034 | 7 | 207 | 8.0 | 12.9 | 0.00 | 0.00 | 0.00 | 100 | 1009.7 |
| 20260507033306 | 8 | 178 | 8.0 | 12.9 | 0.00 | 0.00 | 0.00 | 100 | 1009.7 |
| 20260507032807 | 7 | 188 | 8.0 | 14.5 | 0.00 | 0.00 | 0.00 | 100 | 1009.8 |